[[{"header":{"parameterUnit":"m.s-1","parameterCategory":1,"la1":30.2991,"la2":30.254,"lo1":-89.0895,"lo2":-89.0444,"dy":0.0017,"dx":0.0017,"nx":28,"ny":28,"refTime":"2024-04-04T21:00:00:Z","depth":0,"parameterNumber":2,"parameterNumberName":"U-component_of_WINDS"},"data":[0,0,0,0,0,0,0,0,0,0,0,0,0,0,0,0,0,0,0,0,0,0,0,0,0,0,0,0,0,0,0,0,0,0,0,0,0,0,0,0,0,0,0,0,0,0,0,0,0,0,0,0,0,0,0,0,0,0,1.4084,1.4085,0,1.4159,1.416,1.4161,1.4203,1.4204,1.4204,1.4204,1.4282,1.4284,1.4286,0,0,0,0,0,0,0,0,0,0,0,0,0,1.3979,1.3981,1.4084,1.4085,1.4086,1.4159,1.416,1.4161,1.4203,1.4204,1.4204,1.4204,1.4281,1.4284,1.4286,0,0,0,0,0,0,0,0,0,0,0,0,0,1.4036,1.3981,1.4084,1.4116,1.4119,1.4159,1.416,1.4162,1.4203,1.4204,1.4204,1.4204,1.4281,1.4283,1.4286,1.43,0,0,1.4295,1.4297,0,0,0,0,0,0,0,0,1.4033,1.404,1.411,1.4114,1.4118,1.4172,1.4152,1.4208,1.4203,1.4171,1.4204,1.4204,1.4245,1.4251,1.4265,1.4304,1.4307,1.4296,1.4297,1.4299,1.4299,0,0,0,0,0,0,0,1.4029,1.4037,1.4114,1.4111,1.4116,1.4127,1.4135,1.4163,1.4206,1.4174,1.4178,1.4186,1.4248,1.4262,1.4267,1.4309,1.4295,1.4298,1.43,1.4301,1.4365,1.4365,0,0,0,0,0,0,1.402,1.4034,1.4112,1.4116,1.4075,1.4129,1.4138,1.4155,1.4206,1.4214,1.4186,1.4187,1.4257,1.4264,1.427,1.4291,1.4299,1.4301,1.4303,1.4365,1.4365,1.4365,0,0,0,0,0,0,1.4017,1.4026,1.4109,1.4076,1.4087,1.413,1.4148,1.4156,1.417,1.4215,1.4223,1.4192,1.4257,1.4266,1.4293,1.4294,1.4303,1.4305,1.4365,1.4365,1.4365,1.4332,0,0,0,0,0,0,1.4014,1.4025,1.403,1.4076,1.4089,1.4129,1.4149,1.4157,1.4175,1.4178,1.4223,1.4231,1.4258,1.4288,1.4296,1.4298,1.4308,1.4365,1.4365,1.4365,1.4333,1.4331,1.4329,0,0,0,0,0,1.401,1.4018,1.403,1.404,1.4096,1.4129,1.4137,1.4168,1.4175,1.4181,1.421,1.4229,1.4293,1.4291,1.4299,1.4303,1.4365,1.4365,1.4365,1.4334,1.4331,1.4329,0,0,0,0,0,0,1.3972,1.4025,1.4039,1.4061,1.4091,1.4136,1.4145,1.4164,1.4191,1.4193,1.4231,1.4241,1.4264,1.4287,1.4283,1.432,1.4331,1.4333,1.4305,1.4302,1.43,1.4295,1.431,0,0,0,0,0,1.3966,1.3988,1.4033,1.4049,1.4063,1.4101,1.4117,1.4138,1.417,1.4183,1.4213,1.4244,1.4271,1.4288,1.4315,1.4337,1.4348,1.4344,1.4341,1.4339,1.434,1.4355,1.4354,1.4364,1.4364,1.4364,0,0,1.3954,1.3986,1.3997,1.4042,1.4067,1.409,1.4111,1.4134,1.4152,1.4186,1.4214,1.4237,1.4274,1.4299,1.4311,1.4318,1.434,1.4339,1.4337,1.4339,1.4354,1.4353,1.4352,1.4364,1.4364,1.4364,0,0,1.3944,1.397,1.3986,1.4011,1.4049,1.4075,1.4079,1.4122,1.4139,1.4167,1.4194,1.4216,1.4261,1.4287,1.4306,1.4307,1.4326,1.4315,1.4303,1.4316,1.4316,1.4315,1.4316,1.4316,1.4315,1.4315,1.4315,0,1.3925,1.396,1.3993,1.4014,1.4034,1.4066,1.4084,1.4106,1.4151,1.4164,1.4171,1.4229,1.4256,1.4288,1.4288,1.4302,1.4309,1.431,1.4313,1.4313,1.4313,1.4314,1.4315,1.4314,1.4314,1.4314,1.4314,0,1.3935,1.3958,1.3967,1.401,1.403,1.4049,1.4086,1.4103,1.4123,1.4148,1.4177,1.4211,1.4246,1.4255,1.4274,1.429,1.4293,1.4306,1.4318,1.431,1.4312,1.4313,1.4311,1.4312,1.4313,1.4313,0,0,1.3902,1.3963,1.3966,1.3986,1.4031,1.405,1.4071,1.4106,1.412,1.415,1.4169,1.4208,1.422,1.4242,1.4265,1.4277,1.4276,1.4289,1.429,1.4286,1.4296,1.4286,1.4286,1.429,1.429,1.429,1.4293,0,1.3899,1.3938,1.3969,1.3997,1.402,1.4052,1.4071,1.4101,1.4125,1.4149,1.4177,1.4203,1.4218,1.4231,1.4244,1.4274,1.4279,1.4274,1.4309,1.431,1.4299,1.4287,1.4277,1.4278,1.4294,1.4295,1.4295,0,1.39,1.3929,1.396,1.4003,1.4014,1.403,1.4065,1.4087,1.4122,1.4139,1.4163,1.4187,1.4213,1.4222,1.4258,1.4253,1.427,1.4287,1.4288,1.4292,1.4302,1.4292,1.4279,1.428,1.4296,1.4296,1.4296,0,1.3874,1.3921,1.3946,1.3962,1.4013,1.4024,1.4046,1.4081,1.41,1.413,1.4143,1.4176,1.4194,1.422,1.4252,1.4256,1.4285,1.4297,1.4301,1.43,1.4305,1.4304,1.4295,1.4315,1.4315,1.4315,1.4315,0,1.3868,1.3885,1.3935,1.395,1.3971,1.4006,1.4027,1.4051,1.4083,1.4104,1.4133,1.4153,1.4195,1.4219,1.4245,1.4271,1.4279,1.4294,1.4301,1.4292,1.429,1.4303,1.4304,1.4315,1.4315,1.4315,1.4315,0,1.3842,1.3876,1.3905,1.3951,1.3963,1.3976,1.4016,1.4033,1.4059,1.4086,1.4094,1.4136,1.4167,1.4202,1.4244,1.4262,1.4286,1.4296,1.4274,1.4278,1.428,1.4279,1.4279,1.4281,1.4299,1.4298,1.4298,0,1.3836,1.385,1.3898,1.3914,1.3935,1.3961,1.398,1.4016,1.4036,1.4078,1.4089,1.4122,1.415,1.4198,1.4233,1.4266,1.4277,1.4274,1.4282,1.4273,1.4277,1.4276,1.4278,1.4272,1.4272,1.4272,1.4271,0,1.3821,1.3837,1.3864,1.3897,1.392,1.3948,1.3977,1.3989,1.4031,1.4052,1.4083,1.4105,1.4149,1.4182,1.4219,1.4243,1.4264,1.4269,1.4271,1.4262,1.4249,1.4257,1.4269,1.4269,1.4269,1.4269,1.4269,1.4269,1.3805,1.382,1.3856,1.3886,1.3911,1.3938,1.3956,1.3985,1.4012,1.405,1.407,1.4102,1.4138,1.419,1.4213,1.4239,1.4246,1.425,1.4251,1.4252,1.4249,1.4245,1.4246,1.4246,1.4246,1.4247,1.4247,0,1.3793,1.3818,1.3845,1.3885,1.3908,1.3926,1.396,1.3978,1.4006,1.4037,1.4065,1.4102,1.4134,1.4172,1.4207,1.422,1.4231,1.4228,1.4228,1.4233,1.4241,1.4235,1.4219,1.4219,1.4219,1.4219,1.4219,1.4219,1.3789,1.3815,1.3836,1.3875,1.39,1.3931,1.3949,1.3974,1.4,1.404,1.4067,1.4091,1.4126,1.4163,1.4194,1.4204,1.4216,1.421,1.4223,1.423,1.4232,1.4234,1.4229,1.4212,1.4212,1.4214,1.4214,1.4214]},{"header":{"parameterUnit":"m.s-1","parameterCategory":1,"la1":30.2991,"la2":30.254,"lo1":-89.0895,"lo2":-89.0444,"dy":0.0017,"dx":0.0017,"nx":28,"ny":28,"refTime":"2024-04-04T21:00:00:Z","depth":0,"parameterNumber":3,"parameterNumberName":"V-component_of_WINDS"},"data":[0,0,0,0,0,0,0,0,0,0,0,0,0,0,0,0,0,0,0,0,0,0,0,0,0,0,0,0,0,0,0,0,0,0,0,0,0,0,0,0,0,0,0,0,0,0,0,0,0,0,0,0,0,0,0,0,0,0,-1.6258,-1.6259,0,-1.6367,-1.6368,-1.637,-1.6379,-1.6378,-1.6377,-1.6375,-1.6491,-1.6495,-1.6499,0,0,0,0,0,0,0,0,0,0,0,0,0,-1.606,-1.6063,-1.6257,-1.6259,-1.626,-1.6367,-1.6368,-1.637,-1.6379,-1.6378,-1.6376,-1.6375,-1.6489,-1.6494,-1.6499,0,0,0,0,0,0,0,0,0,0,0,0,0,-1.6155,-1.6065,-1.6257,-1.6278,-1.628,-1.6367,-1.6369,-1.637,-1.6379,-1.6378,-1.6376,-1.6374,-1.6488,-1.6494,-1.65,-1.6574,0,0,-1.6519,-1.6522,0,0,0,0,0,0,0,0,-1.615,-1.6162,-1.6273,-1.6276,-1.628,-1.6357,-1.6341,-1.6439,-1.638,-1.6342,-1.6375,-1.6373,-1.6448,-1.6457,-1.6482,-1.658,-1.6585,-1.652,-1.6523,-1.6526,-1.6528,0,0,0,0,0,0,0,-1.6143,-1.6158,-1.6301,-1.6275,-1.6279,-1.6282,-1.6294,-1.636,-1.6404,-1.6345,-1.6346,-1.6359,-1.6449,-1.6476,-1.6485,-1.6586,-1.6519,-1.6525,-1.6529,-1.6531,-1.6753,-1.6755,0,0,0,0,0,0,-1.6132,-1.6152,-1.6297,-1.6304,-1.6209,-1.6287,-1.63,-1.6334,-1.6403,-1.6412,-1.636,-1.6359,-1.6466,-1.6477,-1.6489,-1.6583,-1.6526,-1.6532,-1.6536,-1.6751,-1.6754,-1.6756,0,0,0,0,0,0,-1.6128,-1.6145,-1.6293,-1.6229,-1.6248,-1.6293,-1.6331,-1.6337,-1.6364,-1.6414,-1.6423,-1.6379,-1.6465,-1.648,-1.6553,-1.6587,-1.6535,-1.654,-1.6749,-1.6752,-1.6755,-1.6769,0,0,0,0,0,0,-1.6122,-1.6143,-1.6171,-1.6229,-1.6251,-1.6355,-1.6333,-1.6341,-1.6374,-1.6374,-1.6434,-1.6442,-1.6465,-1.6544,-1.656,-1.6594,-1.6545,-1.6746,-1.675,-1.6754,-1.6766,-1.6772,-1.6778,0,0,0,0,0,-1.6115,-1.6171,-1.6173,-1.619,-1.6287,-1.6356,-1.6369,-1.6393,-1.6377,-1.6406,-1.6439,-1.6441,-1.658,-1.6551,-1.6569,-1.6606,-1.6744,-1.6749,-1.6754,-1.6763,-1.6771,-1.6778,0,0,0,0,0,0,-1.6117,-1.6179,-1.6181,-1.6257,-1.6301,-1.6358,-1.6395,-1.64,-1.6451,-1.6448,-1.6476,-1.649,-1.6563,-1.6591,-1.6559,-1.6683,-1.666,-1.6669,-1.6662,-1.667,-1.6675,-1.6668,-1.6551,0,0,0,0,0,-1.6125,-1.6176,-1.6228,-1.629,-1.6312,-1.635,-1.6381,-1.6396,-1.6443,-1.6462,-1.65,-1.6547,-1.6601,-1.6637,-1.669,-1.6769,-1.6784,-1.6804,-1.681,-1.6815,-1.6822,-1.6869,-1.6879,-1.6772,-1.6772,-1.6772,0,0,-1.6145,-1.6185,-1.6215,-1.6292,-1.6327,-1.6381,-1.6366,-1.6422,-1.6462,-1.6471,-1.6543,-1.6572,-1.6627,-1.6704,-1.674,-1.673,-1.6855,-1.6821,-1.6824,-1.6829,-1.6875,-1.6885,-1.6894,-1.6775,-1.6775,-1.6774,0,0,-1.6208,-1.6242,-1.6299,-1.6335,-1.639,-1.6415,-1.6428,-1.6484,-1.6504,-1.6576,-1.6585,-1.6634,-1.6726,-1.6765,-1.6797,-1.6876,-1.6881,-1.6893,-1.6925,-1.697,-1.6979,-1.6987,-1.7017,-1.7028,-1.69,-1.69,-1.69,0,-1.6226,-1.6305,-1.6328,-1.6385,-1.6419,-1.6428,-1.6487,-1.6521,-1.6591,-1.6615,-1.6602,-1.672,-1.6757,-1.6845,-1.6865,-1.6889,-1.6908,-1.6887,-1.6975,-1.6984,-1.6991,-1.7021,-1.7032,-1.6901,-1.6901,-1.6901,-1.6901,0,-1.6325,-1.638,-1.642,-1.6486,-1.6525,-1.6582,-1.6615,-1.6651,-1.6663,-1.6689,-1.6764,-1.6809,-1.6872,-1.6893,-1.6905,-1.6984,-1.6977,-1.6969,-1.6948,-1.7002,-1.7031,-1.7042,-1.6903,-1.6902,-1.6902,-1.6902,0,0,-1.6393,-1.6472,-1.6486,-1.6517,-1.6578,-1.6622,-1.668,-1.6742,-1.6773,-1.6821,-1.6872,-1.6951,-1.6945,-1.6982,-1.6998,-1.7037,-1.71,-1.7026,-1.7028,-1.704,-1.7193,-1.72,-1.7212,-1.7103,-1.7105,-1.7107,-1.7189,0,-1.6465,-1.6569,-1.6591,-1.6681,-1.6734,-1.6744,-1.6795,-1.6839,-1.6866,-1.6916,-1.6945,-1.7002,-1.6988,-1.7011,-1.705,-1.7084,-1.7132,-1.7078,-1.7153,-1.7156,-1.7142,-1.7227,-1.7234,-1.7309,-1.72,-1.7202,-1.7203,0,-1.6562,-1.6612,-1.6708,-1.6763,-1.6786,-1.6832,-1.6891,-1.6937,-1.6988,-1.7005,-1.7046,-1.7058,-1.7122,-1.7095,-1.7184,-1.7147,-1.7179,-1.7201,-1.7204,-1.7214,-1.7184,-1.7241,-1.7334,-1.7346,-1.7221,-1.7219,-1.7218,0,-1.6605,-1.6696,-1.6765,-1.6791,-1.6858,-1.689,-1.6919,-1.6968,-1.7004,-1.7056,-1.708,-1.7138,-1.7171,-1.7216,-1.7245,-1.7223,-1.7333,-1.7308,-1.735,-1.735,-1.7375,-1.7373,-1.7476,-1.7391,-1.7391,-1.7391,-1.7391,0,-1.6684,-1.6743,-1.6786,-1.6829,-1.6895,-1.6921,-1.6987,-1.7016,-1.706,-1.711,-1.7122,-1.7169,-1.7202,-1.7255,-1.7277,-1.7349,-1.7363,-1.738,-1.7386,-1.7381,-1.7379,-1.7404,-1.74,-1.7394,-1.7393,-1.7393,-1.7392,0,-1.6744,-1.6775,-1.6852,-1.6908,-1.6924,-1.6971,-1.702,-1.7063,-1.7089,-1.7153,-1.7169,-1.7212,-1.7274,-1.7307,-1.7384,-1.74,-1.7482,-1.7483,-1.7464,-1.7467,-1.7509,-1.7505,-1.7633,-1.7653,-1.7552,-1.7553,-1.7554,0,-1.6794,-1.6839,-1.6901,-1.6935,-1.6965,-1.7019,-1.7056,-1.7083,-1.7121,-1.7183,-1.722,-1.7282,-1.7334,-1.7434,-1.7473,-1.7533,-1.7538,-1.7578,-1.7547,-1.7541,-1.7541,-1.7539,-1.7545,-1.7584,-1.7585,-1.7586,-1.7587,0,-1.6879,-1.6893,-1.6944,-1.7002,-1.7046,-1.7093,-1.7139,-1.7167,-1.7202,-1.7245,-1.7308,-1.7349,-1.7428,-1.7491,-1.7555,-1.7587,-1.7594,-1.7596,-1.761,-1.7606,-1.7594,-1.7604,-1.7482,-1.7593,-1.7593,-1.7592,-1.7592,-1.7592,-1.6938,-1.6979,-1.7029,-1.7087,-1.7125,-1.7169,-1.7213,-1.7245,-1.7298,-1.7365,-1.7378,-1.7446,-1.7497,-1.7583,-1.7617,-1.7672,-1.7663,-1.7682,-1.7688,-1.7692,-1.7696,-1.7583,-1.7683,-1.7683,-1.7683,-1.7682,-1.7682,0,-1.7026,-1.7059,-1.7112,-1.7177,-1.7223,-1.7224,-1.7276,-1.7315,-1.7374,-1.7421,-1.7472,-1.7546,-1.7608,-1.7652,-1.7715,-1.7751,-1.7756,-1.7767,-1.7766,-1.7773,-1.7698,-1.7681,-1.7762,-1.7762,-1.7762,-1.7762,-1.7761,-1.7761,-1.7078,-1.7149,-1.7168,-1.7259,-1.7292,-1.7358,-1.7388,-1.7429,-1.7467,-1.7549,-1.76,-1.7628,-1.7674,-1.7741,-1.7798,-1.781,-1.7834,-1.7845,-1.7857,-1.7787,-1.7778,-1.777,-1.7755,-1.7849,-1.7849,-1.7928,-1.7929,-1.793]}]]